Home > Weather > Stavanger > Past weeks

Flag for Norway Past Weather in Stavanger, Norway — Yesterday and Last 2 Weeks

Now
63 °F

Partly sunny.


Feels Like: 63 °F
Forecast: 58 / 62 °F
Wind: 13 mph from Southwest

Location: Stavanger / Sola

Current Time: Jul 26, 2016 at 4:17:39 PM

Latest Report: Jul 26, 2016 at 3:20 PM


Visibility: N/A

Pressure: 29.98 "Hg

Humidity: 73%

Dew Point: 54 °F

Location of StavangerLocation

Past Weather in Stavanger — Graph

°F

Stavanger Temperature Yesterday

Maximum temperature yesterday: 70 °F (at 9:20 AM)
Minimum temperature yesterday: 61 °F (at 11:50 PM)
Average temperature yesterday: 66 °F

High & Low Weather Summary for the Past Weeks

 TemperatureHumidityPressure
High79 °F (Jul 20, 3:20 PM)100% (Jul 17, 1:50 AM)30.15 "Hg (Jul 17, 1:50 AM)
Low50 °F (Jul 17, 1:50 AM)53% (Jul 20, 11:50 PM)29.45 "Hg (Jul 11, 3:50 PM)
Average62 °F82%29.94 "Hg
* Reported Jul 11 2:20 PM — Jul 26 2:50 PM, Stavanger, Weather by CustomWeather, © 2016

Note: Actual official high and low records may vary slightly from our data, if they occured in-between our weather recording intervals... More about our weather records

Advertising

Stavanger Weather History for the Previous 24 Hours

Scroll right to see more
 ConditionsComfort  
Time TempWeatherWind HumidityBarometerVisibility
2:50 PM
Tue, Jul 26
64 °FScattered clouds.15 mph73%29.98 "HgN/A
2:20 PM64 °FScattered clouds.13 mph73%29.98 "HgN/A
1:50 PM64 °FScattered clouds.12 mph73%29.98 "HgN/A
1:20 PM63 °FScattered clouds.12 mph73%29.98 "HgN/A
12:50 PM64 °FScattered clouds.10 mph73%29.98 "HgN/A
12:20 PM64 °FScattered clouds.10 mph73%29.98 "HgN/A
11:50 AM64 °FScattered clouds.9 mph73%29.98 "HgN/A
11:20 AM64 °FScattered clouds.8 mph73%29.95 "HgN/A
10:50 AM63 °FScattered clouds.9 mph77%29.95 "HgN/A
10:20 AM63 °FScattered clouds.8 mph77%29.95 "HgN/A
9:50 AM63 °FScattered clouds.7 mph77%29.95 "HgN/A
9:20 AM63 °FScattered clouds.8 mph83%29.92 "HgN/A
8:50 AM61 °FScattered clouds.6 mph94%29.92 "HgN/A
8:20 AM59 °FScattered clouds.5 mph94%29.92 "HgN/A
7:50 AM59 °FBroken clouds.5 mph94%29.92 "HgN/A
7:20 AM57 °FBroken clouds.5 mph94%29.92 "HgN/A
6:50 AM57 °FBroken clouds.5 mph94%29.92 "HgN/A
6:20 AM57 °FScattered showers. Broken clouds.6 mph94%29.92 "HgN/A
5:50 AM59 °FSprinkles. Fog.6 mph88%29.92 "HgN/A
4:50 AM59 °FPartly cloudy.7 mph88%29.92 "HgN/A
3:50 AM57 °FPartly cloudy.7 mph94%29.92 "HgN/A
2:50 AM59 °FPassing clouds.5 mph88%29.92 "HgN/A
1:50 AM61 °FPartly cloudy.5 mph83%29.95 "HgN/A
12:50 AM61 °FPartly cloudy.5 mph88%29.95 "HgN/A
11:50 PM
Mon, Jul 25
61 °FMostly cloudy.3 mph88%29.92 "HgN/A
11:20 PM63 °FPartly cloudy.5 mph83%29.95 "HgN/A
10:50 PM63 °FBroken clouds.6 mph83%29.92 "HgN/A
10:20 PM63 °FBroken clouds.8 mph83%29.92 "HgN/A
9:50 PM63 °FBroken clouds.9 mph83%29.92 "HgN/A
9:20 PM63 °FPartly sunny.9 mph83%29.92 "HgN/A
8:50 PM64 °FBroken clouds.9 mph88%29.92 "HgN/A
8:20 PM64 °FBroken clouds.12 mph88%29.89 "HgN/A
7:50 PM64 °FBroken clouds.10 mph88%29.92 "HgN/A
7:20 PM66 °FPartly sunny.13 mph83%29.89 "HgN/A
6:50 PM66 °FPartly sunny.12 mph83%29.89 "HgN/A
6:20 PM66 °FBroken clouds.16 mph88%29.89 "HgN/A
5:50 PM66 °FScattered showers. Broken clouds.17 mph88%29.89 "Hg6 mi
5:20 PM64 °FSprinkles. Broken clouds.10 mph94%29.89 "HgN/A
4:50 PM64 °FScattered showers. Broken clouds.15 mph94%29.89 "HgN/A
4:20 PM66 °FDrizzle. Partly sunny.17 mph83%29.89 "HgN/A
Weather by CustomWeather, © 2016

See weather overviewHow to use our weather pages